Location: ?????????
(55.6553°N, 38.9075°E)
Time: 13:01:40
(UTC+00:00)

Cosmos 2369 Rocket - Pass Details

Date: 18 October 2019
Orbit: 830 x 851 km, 71.0° (Epoch: 18 November)

Event Time Altitude Azimuth Distance (km) Brightness Sun altitude
Exits shadow 01:56:22 - 324° (NW) 3,256 5.0 -18.1°
Reaches altitude 10° 01:58:36 10° 332° (NNW) 2,455 4.4 -17.8°
Maximum altitude 02:03:52 39° 41° (NE) 1,231 3.5 -17.1°
Drops below altitude 10° 02:09:06 10° 110° (ESE) 2,440 5.6 -16.3°
Sets 02:11:41 0° 118° (ESE) 3,370 6.3 -16.0°
